DW7322 Weather Reports


Display with metric or nautical units.
time (UTC)temp
F
wind
direction
speed
MPH
gust
MPH
rain 1hr
in
rain 24hr
in
rain mn
in
humidity
%
barometer
mb
20260904160103 85 222 0.0 1.0 0.00 0.00 0.00 77 1014.9
20260904154608 85 302 0.0 1.0 0.00 0.00 0.00 76 1014.7
20260904153021 86 4 0.0 1.0 0.00 0.00 0.00 75 1014.5
20260904151536 85 101 0.0 1.0 0.00 0.00 0.00 76 1013.9
20260904150052 86 37 0.0 0.0 0.00 0.00 0.00 77 1014.0
20260904144540 85 72 0.0 0.0 0.00 0.00 0.00 79 1013.8
20260904143054 84 73 0.0 0.0 0.00 0.00 0.00 79 1013.5
20260904141513 83 136 0.0 0.0 0.00 0.00 0.00 82 1013.6
20260904140001 80 136 0.0 0.0 0.00 0.00 0.00 88 1013.6
20260904134521 78 136 0.0 0.0 0.00 0.00 0.00 90 1013.4
20260904133036 76 111 0.0 0.0 0.00 0.00 0.00 93 1013.4
20260904131602 75 112 0.0 0.0 0.00 0.00 0.00 94 1013.4
20260904130104 74 111 0.0 0.0 0.00 0.00 0.00 95 1013.2
20260904124555 73 111 0.0 0.0 0.00 0.00 0.00 95 1012.8
20260904123010 73 111 0.0 0.0 0.00 0.00 0.00 95 1012.4
20260904121535 72 111 0.0 0.0 0.00 0.00 0.00 95 1012.2
20260904120055 72 111 0.0 0.0 0.00 0.00 0.00 95 1012.0
20260904114556 72 111 0.0 0.0 0.00 0.00 0.00 95 1012.0
20260904113031 72 111 0.0 0.0 0.00 0.00 0.00 94 1011.8
20260904111538 72 111 0.0 0.0 0.00 0.00 0.00 94 1011.7
20260904110100 72 111 0.0 0.0 0.00 0.00 0.00 94 1011.6
20260904104555 73 111 0.0 0.0 0.00 0.00 0.00 95 1011.5
20260904103017 73 111 0.0 0.0 0.00 0.00 0.00 95 1011.5
20260904101538 74 111 0.0 0.0 0.00 0.00 0.00 95 1011.4
20260904100111 74 111 0.0 0.0 0.00 0.00 0.00 95 1011.5
20260904094603 74 111 0.0 0.0 0.00 0.00 0.00 95 1011.8
20260904093019 74 111 0.0 0.0 0.00 0.00 0.00 95 1011.9
20260904091548 74 111 0.0 0.0 0.00 0.00 0.00 95 1012.2
20260904090108 74 111 0.0 0.0 0.00 0.00 0.00 95 1012.2
20260904084511 74 111 0.0 0.0 0.00 0.00 0.00 94 1012.4
20260904083036 74 111 0.0 0.0 0.00 0.00 0.00 94 1012.3
20260904081507 75 111 0.0 0.0 0.00 0.00 0.00 94 1012.3
20260904080002 75 111 0.0 0.0 0.00 0.00 0.00 94 1011.9
20260904074530 75 111 0.0 0.0 0.00 0.00 0.00 93 1011.9
20260904073049 76 111 0.0 0.0 0.00 0.00 0.00 93 1011.7
20260904071504 76 111 0.0 0.0 0.00 0.00 0.00 93 1011.8
20260904070119 76 111 0.0 0.0 0.00 0.00 0.00 93 1011.8
20260904064515 77 111 0.0 0.0 0.00 0.00 0.00 93 1012.1
20260904063040 77 111 0.0 0.0 0.00 0.00 0.00 92 1012.3
20260904061558 77 111 0.0 0.0 0.00 0.00 0.00 92 1012.7
20260904061513 77 110 0.0 0.0 0.00 0.00 0.00 92 1012.6
20260904060122 77 111 0.0 0.0 0.00 0.00 0.00 92 1012.8
20260904054526 78 111 0.0 0.0 0.00 0.00 0.00 92 1012.9
20260904053043 78 111 0.0 0.0 0.00 0.00 0.00 91 1012.9
20260904051509 78 110 0.0 0.0 0.00 0.00 0.00 91 1012.9
20260904050150 78 111 0.0 0.0 0.00 0.00 0.00 91 1012.8
20260904044534 78 111 0.0 0.0 0.00 0.00 0.00 90 1012.6
20260904043044 78 112 0.0 0.0 0.00 0.00 0.00 91 1012.7
20260904041502 78 111 0.0 0.0 0.00 0.00 0.00 90 1012.9
20260904040003 79 111 0.0 0.0 0.00 0.00 0.00 89 1012.8
20260904034528 79 111 0.0 0.0 0.00 0.00 0.00 88 1012.7
20260904033049 79 111 0.0 0.0 0.00 0.00 0.00 88 1012.8
20260904031512 79 111 0.0 0.0 0.00 0.00 0.00 88 1012.8
20260904030007 80 111 0.0 0.0 0.00 0.00 0.00 87 1012.8
20260904024528 80 111 0.0 0.0 0.00 0.00 0.00 87 1012.9
20260904023046 80 111 0.0 0.0 0.00 0.00 0.00 87 1012.7
20260904021508 80 111 0.0 0.0 0.00 0.00 0.00 88 1012.6
20260904020124 79 111 0.0 0.0 0.00 0.00 0.00 88 1012.5
20260904014520 79 111 0.0 0.0 0.00 0.00 0.00 88 1012.5
20260904013037 80 111 0.0 0.0 0.00 0.00 0.00 87 1012.2
20260904011503 80 111 0.0 0.0 0.00 0.00 0.00 86 1012.0
20260904010119 81 111 0.0 0.0 0.00 0.00 0.00 85 1011.6
20260904004525 82 111 0.0 0.0 0.00 0.00 0.00 82 1011.3
20260904003030 83 111 0.0 0.0 0.00 0.00 0.00 80 1011.0
20260904001554 84 107 0.0 0.0 0.00 0.00 0.00 79 1010.7
20260904000106 85 106 0.0 0.0 0.00 0.00 0.00 78 1010.9
20260903234512 85 103 0.0 0.0 0.00 0.00 0.00 75 1011.1
20260903233027 86 104 0.0 0.0 0.00 0.00 0.00 74 1011.2
20260903231603 86 265 0.0 0.0 0.00 0.00 0.00 74 1011.3
20260903230115 87 202 0.0 0.0 0.00 0.00 0.00 73 1011.5
20260903224521 87 198 0.0 0.0 0.00 0.00 0.00 71 1011.5
20260903223044 88 199 0.0 0.0 0.00 0.00 0.00 69 1011.5
20260903221503 89 96 0.0 0.0 0.00 0.00 0.00 68 1011.7
20260903220122 90 204 0.0 0.0 0.00 0.00 0.00 66 1011.8
20260903214519 91 139 0.0 0.0 0.00 0.00 0.00 65 1011.8
20260903213038 90 136 0.0 0.0 0.00 0.00 0.00 66 1011.8
20260903211505 91 252 0.0 0.0 0.00 0.00 0.00 64 1011.8
20260903210003 91 209 0.0 1.0 0.00 0.00 0.00 62 1012.0
20260903204525 91 276 0.0 0.0 0.00 0.00 0.00 64 1012.0
20260903203040 91 245 0.0 0.0 0.00 0.00 0.00 62 1012.0
20260903201504 92 227 0.0 1.0 0.00 0.00 0.00 61 1012.2
20260903200112 91 129 0.0 2.0 0.00 0.00 0.00 64 1012.3
20260903194515 91 209 0.0 3.0 0.00 0.00 0.00 65 1012.5
20260903193022 90 205 0.0 1.0 0.00 0.00 0.00 65 1012.7
20260903191553 89 145 0.0 0.0 0.00 0.00 0.00 68 1012.8
20260903190101 89 223 0.0 2.0 0.00 0.00 0.00 67 1012.9
20260903184554 88 233 0.0 1.0 0.00 0.00 0.00 68 1013.0
20260903183031 88 184 0.0 3.0 0.00 0.00 0.00 70 1013.2
20260903181532 87 17 0.0 0.0 0.00 0.00 0.00 69 1013.3
20260903180059 86 325 0.0 0.0 0.00 0.00 0.00 71 1013.6
20260903174549 83 359 0.0 0.0 0.00 0.00 0.00 76 1013.7
20260903173014 82 271 0.0 2.0 0.00 0.00 0.00 76 1014.1
20260903171532 83 359 0.0 1.0 0.00 0.00 0.00 77 1014.1
20260903164510 84 7 0.0 0.0 0.00 0.00 0.00 75 1014.3
20260903163031 85 343 0.0 0.0 0.00 0.00 0.00 75 1014.3
20260903161558 85 346 0.0 1.0 0.00 0.00 0.00 74 1014.2